Location: Ottawa
(45.4170°N, 75.7000°W)
Time: 15:16:00
(UTC-04:00)

Daily predictions for brighter satellites

Satellite Brightness Start Highest point End
(mag) Time Altitude Azimuth Time Altitude Azimuth Time Altitude Azimuth
NOSS 2-2 (C) 4.2 21:07:02 10° S 21:10:37 31° ESE 21:14:38 10° NE
Aureole 1 Rocket 4.1 21:12:12 10° SE 21:14:09 15° ESE 21:15:58 10° ENE
Cosmos 1536 Rocket 3.6 21:12:13 10° S 21:16:29 63° E 21:20:47 10° NNE
USA 245 4.5 21:17:46 10° ESE 21:19:20 14° ENE 21:20:45 10° NE
Cosmos 1680 Rocket 4.2 21:14:44 10° SSE 21:19:23 33° E 21:24:02 10° NE
SL-27 R/B 4.2 21:17:45 10° SE 21:20:07 17° E 21:22:30 10° ENE
Helios 1A 3.9 21:22:33 10° S 21:26:39 49° W 21:30:46 10° NNW
Cosmos 405 4.2 21:24:38 10° NNE 21:27:45 27° ENE 21:30:27 12° SE
PSLV R/B 3.8 21:26:44 10° WSW 21:29:37 35° S 21:32:18 11° ESE
Resurs 01 Rocket 4.2 21:28:58 10° SW 21:32:11 20° W 21:35:26 10° NW
Meteor 2-4 Rocket 4.1 21:26:58 10° SSE 21:32:16 45° E 21:37:45 10° NNE
Envisat 3.9 21:29:23 10° S 21:34:17 48° W 21:39:13 10° NNW
Cosmos 292 Rocket 4.1 21:30:14 10° SSW 21:35:03 71° WNW 21:39:54 10° NNE
SPOT 5 3.2 21:34:31 12° SE 21:38:14 42° ENE 21:42:20 10° N
Cosmos 1666 2.7 21:34:59 10° N 21:38:44 64° E 21:42:13 12° SSE
SPOT 1/Viking Rocket 4.4 21:34:43 12° SE 21:39:04 36° ENE 21:43:45 10° N
Lacrosse 5 rocket 4.1 21:38:42 10° WNW 21:42:20 23° NNW 21:46:02 10° NE
Nadezhda 1 Rocket 4.2 21:38:04 10° S 21:44:15 59° E 21:50:33 10° NNE
SL-08 RB Rocket 4.2 21:42:46 14° SE 21:46:19 43° ENE 21:50:33 10° N
Cosmos 2154 Rocket 4.3 21:41:32 10° N 21:47:45 52° ENE 21:53:07 14° SSE
Meteor 1-19 Rocket 4.3 21:43:37 10° S 21:49:27 86° E 21:55:14 10° NNE
Cosmos 1025 Rocket 3.5 21:45:55 12° SSE 21:49:28 40° E 21:53:28 10° NNE
ASTEX 1 3.4 21:44:34 10° S 21:49:29 88° E 21:54:25 10° N
RESURS DK-1 4.1 21:51:00 10° WSW 21:54:50 36° NW 21:58:41 10° NNE
MOS 1-B Rocket 4.0 21:49:25 11° SSE 21:54:51 83° ENE 22:01:14 10° NNW
Aureole 3 Rocket 3.8 21:50:05 10° S 21:56:54 86° W 22:01:42 10° N
Terra 3.2 21:53:59 14° ESE 21:57:02 25° ENE 22:00:52 10° N
Meteor 1-23 Rocket 4.3 21:53:19 10° S 21:58:44 57° E 22:04:14 10° NNE
Cosmos 1371 Rocket 4.4 21:53:41 10° NNW 21:58:55 53° ENE 22:02:43 18° SE
NOSS 2-2 (E) 3.6 21:55:14 10° SW 21:59:18 83° NW 22:04:11 10° NE
CRYOSAT 2 4.4 21:55:06 10° S 21:59:56 84° W 22:04:50 10° N
Meteor 1-15 Rocket 4.3 21:56:22 10° N 22:01:57 62° ENE 22:06:11 17° SSE
Cosmos 923 Rocket 4.2 21:59:02 10° SSW 22:04:22 79° WNW 22:09:42 10° NNE
Cosmos 405 Rocket 3.4 22:01:25 10° SSW 22:05:05 54° WNW 22:08:51 10° N
Cosmos 1656 Rocket 4.3 22:00:03 10° NW 22:05:17 51° WSW 22:10:13 12° S
Cosmos 1346 3.7 22:03:51 10° SSW 22:06:33 49° WNW 22:09:17 10° N
GENESIS II 4.2 22:03:13 10° NW 22:07:13 87° SW 22:09:34 23° SSE
Cosmos 1238 Rocket 4.1 22:01:39 10° S 22:08:21 82° E 22:14:59 10° N
YAOGAN 6 4.4 22:06:24 10° SSW 22:09:25 27° W 22:12:27 10° NW
Tiangong 2 3.3 22:08:00 10° SSW 22:08:38 13° SSW 22:08:38 13° SSW
H-2A R/B 3.3 22:08:01 18° ESE 22:10:33 30° ENE 22:14:31 10° N
Cosmos 1980 Rocket 4.3 22:07:45 10° N 22:11:09 16° NE 22:14:31 10° ENE
MetOp-A 4.4 22:06:10 12° S 22:11:10 68° WSW 22:16:32 10° NNW
COSMOS 2455 4.4 22:07:00 10° NW 22:11:58 28° WSW 22:16:57 10° SSW
Cosmos 2341 Rocket 4.2 22:08:00 10° N 22:14:16 61° ENE 22:18:46 20° SSE
Cosmos 1943 Rocket 4.4 22:15:08 10° WNW 22:18:48 18° W 22:22:28 10° SW
Cosmos 1441 Rocket 3.3 22:15:22 10° SSW 22:19:06 72° WNW 22:22:50 10° N
Meteor 1-4 Rocket 4.4 22:17:48 10° NNE 22:20:19 17° ENE 22:21:21 16° E
Meteor 2-19 Rocket 4.5 22:16:49 10° N 22:22:57 72° E 22:27:11 21° SSE
OAO 2 Rocket 4.4 22:20:47 10° SW 22:24:46 24° S 22:25:27 23° SSE
ERS-1 Rocket 4.2 22:22:01 10° SSW 22:26:37 36° W 22:31:15 10° NNW
H-2A R/B 1.9 22:24:04 23° SSE 22:27:14 82° ENE 22:32:16 10° NNW
OE (NEXTSAT) 4.3 22:24:10 10° W 22:27:45 90° S 22:29:36 27° E
COSMOS 2406 3.7 22:23:45 10° SW 22:29:26 65° WNW 22:35:08 10° NNE
Okean 1-7 Rocket 3.9 22:25:23 10° SSW 22:29:48 66° W 22:34:18 10° N
USA 267 4.0 22:24:25 10° ENE 22:29:51 27° SE 22:32:17 22° SSE
DMSP B5D2-2 4.4 22:25:55 10° NNE 22:31:04 49° E 22:33:58 24° SSE
ARGOS 3.7 22:32:24 16° S 22:36:38 55° W 22:41:59 10° NNW
Cosmos 2112 Rocket 4.4 22:32:07 10° SSW 22:37:18 63° WNW 22:42:29 10° NNE
Cosmos 2278 3.9 22:33:11 10° NNW 22:38:51 60° ENE 22:41:57 27° SE
Cosmos 1624 Rocket 4.0 22:38:07 10° NNW 22:43:25 81° WSW 22:46:15 28° SSE
Cosmos 2082 Rocket 3.1 22:43:04 27° SE 22:44:27 30° ESE 22:49:18 10° NE
SL-24 DEB 4.5 22:44:03 23° S 22:46:54 66° W 22:51:31 10° N
Cosmos 1892 Rocket 3.5 22:44:34 28° S 22:46:55 82° E 22:51:22 10° N
CENTAUR R/B 4.1 22:42:36 10° NW 22:49:39 36° WSW 22:55:42 15° S
deb Chang Zheng 4 3.9 22:46:03 10° NNE 22:50:14 47° E 22:51:21 37° SE
Cosmos 2181 Rocket 4.0 22:46:01 20° S 22:50:37 82° E 22:56:58 10° N
IGS 5A 3.5 22:49:33 38° SSE 22:51:01 70° ENE 22:55:10 10° N
Okean 2 4.0 22:48:38 17° SSW 22:51:37 53° WNW 22:55:38 10° N
Cosmos 2228 2.9 22:47:56 10° N 22:52:16 76° E 22:53:47 39° SSE
SeaSat 1 4.2 22:49:57 13° E 22:53:04 24° NE 22:56:57 10° N
Iridium 43 4.5 22:51:20 10° N 22:53:00 43° N 22:53:00 43° N
Cosmos 1602 Rocket 4.4 22:53:46 31° ESE 22:54:26 33° E 22:58:20 10° NNE
SL-27 R/B 4.1 22:51:40 10° SW 22:55:04 36° WNW 22:58:29 10° N
Cosmos 1437 Rocket 3.6 22:52:11 10° NNW 22:55:48 42° W 22:57:30 26° SSW
Cosmos 2369 3.7 22:51:19 10° NNW 22:57:06 81° ENE 22:59:47 33° SSE
Cosmos 921 Rocket 3.0 22:54:40 10° NNW 22:59:13 85° WSW 23:00:46 40° SSE
Cosmos 1606 Rocket 4.3 22:55:21 10° NNW 22:59:29 46° W 23:01:41 24° SSW
Cosmos 2056 Rocket 3.8 22:56:49 10° NNW 23:01:57 60° WSW 23:04:18 31° S
TELKOM 3 3.6 23:01:57 10° WNW 23:04:33 76° NNE 23:04:53 65° E
USA 234 4.3 23:00:13 10° E 23:06:17 42° NNE 23:12:20 10° NW
SL-16 R/B 4.5 23:04:05 10° N 23:07:33 16° NE 23:10:59 10° E
PSLV R/B 3.1 23:09:06 68° N 23:09:06 68° N 23:11:36 10° NNW
Cosmos 1697 Rocket 3.1 23:04:15 10° NNW 23:09:46 54° ENE 23:12:12 31° ESE
Cosmos 1726 Rocket 4.5 23:06:46 10° NNW 23:10:50 42° W 23:12:46 26° SW
Cosmos 1809 Rocket 4.4 23:05:37 10° N 23:11:44 78° E 23:14:28 35° SSE
Cosmos 2058 Rocket 3.6 23:10:30 10° NNW 23:14:47 53° W 23:16:28 33° SSW
SL-19 R/B 4.1 23:11:17 10° NNE 23:16:46 87° ESE 23:19:20 32° SSW
Cosmos 1271 Rocket 3.8 23:13:51 10° N 23:17:20 32° ENE 23:17:42 31° E
CZ-4B R/B 3.5 23:13:20 10° NNE 23:18:20 62° ESE 23:19:54 42° SSE
Iridium 2 4.4 23:16:08 10° N 23:19:44 39° E 23:19:52 39° E
COSMOS 2487 2.3 23:19:36 78° SSE 23:19:46 83° ESE 23:23:22 10° NNE
CARTOSAT-1 4.1 23:19:44 37° SSW 23:21:06 52° W 23:25:21 10° NNW
Cosmos 839 Rocket 4.5 23:15:31 10° NW 23:21:55 62° WSW 23:25:33 32° S
Lacrosse 5 rocket 4.1 23:19:30 10° NW 23:22:57 20° N 23:26:26 10° ENE
Cosmos 864 Rocket 4.4 23:17:56 10° N 23:24:18 88° E 23:27:01 37° S
Cosmos 1420 Rocket 4.2 23:19:10 10° NNW 23:24:25 62° ENE 23:26:07 40° SE
Cosmos 1833 Rocket 2.7 23:28:30 41° S 23:30:19 63° ESE 23:35:54 10° NNE
Cosmos 1066 Rocket 4.2 23:28:36 32° SSW 23:31:13 77° WNW 23:36:51 10° N
Cosmos 1766 3.1 23:29:33 10° N 23:33:30 73° E 23:33:44 70° ESE
Cosmos 1452 Rocket 3.5 23:29:05 10° NNW 23:34:21 75° WSW 23:35:54 46° S
Cosmos 1656 3.6 23:29:06 10° NNW 23:34:33 73° WSW 23:36:13 45° S
Terra 2.7 23:32:52 31° SW 23:34:33 42° W 23:39:05 10° NNW
Meteor 2-16 Rocket 4.4 23:28:42 10° N 23:34:52 77° E 23:37:08 41° SSE
Cosmos 1758 4.3 23:33:10 10° N 23:36:50 33° ENE 23:37:03 33° E
Spot 4 3.9 23:37:32 48° S 23:38:46 71° WSW 23:43:35 10° NNW
Cosmos 2366 rocket 4.2 23:36:54 10° NNW 23:43:00 65° W 23:45:36 35° SSW
Cosmos 1812 Rocket 3.5 23:40:44 10° N 23:45:14 83° W 23:45:57 63° S
H-2A R/B 3.5 23:45:08 26° SW 23:46:29 31° W 23:50:32 10° NW
Cosmos 1470 4.4 23:48:04 10° NNE 23:51:22 24° ENE 23:51:33 24° ENE
ISS -2.6 23:52:40 38° NE 23:52:40 38° NE 23:54:56 10° ENE
Meteor 1-4 Rocket 3.8 23:52:19 10° NNW 23:55:35 31° W 23:55:39 31° W
